Regional Weather Roundup
Issued by NWS

Home | Current Version | Previous Version | Graphics & Text | Print | Product List | Glossary On
Versions: 1 2 3 4 5 6 7 8 9 10 11 12 13 14 15 16 17 18 19 20 21 22 23 24 25 26 27 28 29 30 31 32 33 34 35 36 37 38 39 40 41 42 43 44 45 46 47 48 49 50
000
ASUS43 KDTX 160310
RWRMI
MICHIGAN HOURLY REGIONAL WEATHER ROUNDUP
NATIONAL WEATHER SERVICE DETROIT/PONTIAC MI
1000 PM EST MON JAN 15 2018

NOTE: "FAIR" INDICATES FEW OR NO CLOUDS BELOW 12,000 FEET WITH NO
SIGNIFICANT WEATHER AND/OR OBSTRUCTION TO VISIBILITY.

MIZ047>049-052>055-059>063-066>070-074>076-081>083-160400-
SOUTHEAST LOWER MICHIGAN

CITY           SKY/WX    TMP DP  RH WIND       PRES   REMARKS
ADRIAN         CLOUDY    20  18  92 SW5       30.27S WCI  13
ALMA           LGT SNOW  15  14  95 CALM      30.28S
ANN ARBOR      LGT SNOW  19  17  92 CALM      30.25S FOG
BAD AXE        FLURRIES  17  14  90 CALM      30.28S
CARO           LGT SNOW  16  14  91 CALM      30.27S
DETROIT CITY   LGT SNOW  21  19  92 CALM      30.27R FOG
DETROIT        LGT SNOW  21  19  92 S6        30.28R FOG     WCI  13
FLINT          LGT SNOW  17  15  92 E3        30.26S FOG
GROSSE ILE     CLOUDY    23  20  91 SW3       30.27R
HILLSDALE      LGT SNOW  21  19  93 S5        30.21S WCI  15
HOWELL         LGT SNOW  18  17  96 CALM      30.24S

CITY           SKY/WX    TMP DP  RH WIND       PRES   REMARKS
JACKSON        CLOUDY    19  16  88 CALM      30.23S
LAMBERTVILLE   FLURRIES  23  20  89 SW6       30.27S WCI  15
LANSING        LGT SNOW  17  15  92 NE3       30.25S FOG
LAPEER         LGT SNOW  17  15  91 CALM      30.26R
MASON          LGT SNOW  19  15  83 CALM      30.24S
MONROE         LGT SNOW  21  19  89 SW3       30.27R
MT. CLEMENS    CLOUDY    19  19  99 CALM      30.25S
PONTIAC        LGT SNOW  19  17  92 CALM      30.23R FOG
PORT HOPE        N/A     19  16  88 CALM      30.28F
PORT HURON     LGT SNOW  18  16  93 CALM      30.27S
TRI CITIES     LGT SNOW  16  14  92 N6        30.29S FOG     WCI   7
MIDLAND        LGT SNOW  17  14  89 CALM      30.28S
TROY           LGT SNOW  21  19  92 CALM      30.28R
SAGINAW HB     CLOUDY    16  14  93 CALM      30.28S
$$
MIZ043>046-050>051-056>058-064>065-071>073-077>080-160400-
SOUTHWEST LOWER MICHIGAN

CITY           SKY/WX    TMP DP  RH WIND       PRES   REMARKS
BATTLE CREEK   LGT SNOW  20  17  88 S10       30.23S FOG     WCI   9
BENTON HARBOR  LGT SNOW  19  13  77 SW14      30.28R WCI   6
BIG RAPIDS     LGT SNOW  15  10  83 CALM      30.25S
COLDWATER      LGT SNOW  15  11  85 SW13G18   30.25R WCI   1
FREMONT        LGT SNOW  16  10  77 E7        30.26S WCI   7
HOLLAND        LGT SNOW  20  16  84 NE3       30.25R FOG
GRAND RAPIDS   LGT SNOW  18  14  84 NE7       30.25R FOG     WCI   9
IONIA          CLOUDY    16  14  92 NE6       30.25R WCI   8
KALAMAZOO      LGT SNOW  20  15  81 SW13      30.25R WCI   7
LUDINGTON      FAIR      11   9  92 CALM      30.30R
MARSHALL       FLURRIES  19  17  93 CALM      30.23S
MOUNT PLEASANT LGT SNOW  16  13  86 N5        30.27S WCI   9
MUSKEGON       LGT SNOW  18  12  77 NE8       30.27S WCI   8
SOUTH HAVEN    LGT SNOW  22  18  85 SW12G17   30.25R WCI  11
$$
MIZ016>042-160400-
NORTHERN LOWER MICHIGAN

CITY           SKY/WX    TMP DP  RH WIND       PRES   REMARKS
ALPENA         CLOUDY    19  16  88 NE7       30.32R WCI  10
BEAVER ISLAND  CLOUDY    18  13  84 E10G20    30.38S WCI   6
BELLAIRE       CLOUDY    17  16  95 CALM      30.33S
CADILLAC       FLURRIES   6   1  81 CALM      30.24S
CHARLEVOIX     LGT SNOW  20  17  88 NE8       30.37R WCI  10
FRANKFORT      CLOUDY    17  13  86 NE3       30.32S
GAYLORD        LGT SNOW  16  15  96 NE6       30.26S FOG     WCI   7
GRAYLING       LGT SNOW  15  11  84 CALM      30.28R
HARBOR SPRINGS LGT SNOW  18  14  85 NE9G17    30.34R WCI   7
HOUGHTON LAKE  CLOUDY    10   8  92 CALM      30.26S
MANISTEE       FLURRIES  12   9  87 E3        30.31R
OSCODA         LGT SNOW  18  16  90 NW3       30.29F
PELLSTON       LGT SNOW  18  15  88 NE12      30.36R VSB 1   WCI   5
ROGERS CITY    LGT SNOW  19  15  84 E18G25    30.36S WCI   4
TRAVERSE CITY  LGT SNOW  15  12  88 SE3       30.31R FOG
$$
MIZ007>008-015-160400-
EASTERN UPPER MICHIGAN

CITY           SKY/WX    TMP DP  RH WIND       PRES   REMARKS
KINROSS        LGT SNOW  13  10  88 NE9       30.40R FOG     WCI   1
MACKINAC ISLAN CLOUDY    16  11  82 NE20      30.37S HAZE    WCI  -1
NEWBERRY       CLOUDY    13  11  92 NE7       30.39S WCI   2
S. S. MARIE    CLOUDY    16   9  74 E6        30.40S WCI   7
MUNISING         N/A     16  14  92 CALM      30.42R
$$
MIZ004>006-011>014-085-160400-
CENTRAL UPPER MICHIGAN

CITY           SKY/WX    TMP DP  RH WIND       PRES   REMARKS
MANISTIQUE     FAIR      12  10  94 NE5       30.39S WCI   4
ESCANABA       FLURRIES  15  11  83 N6        30.38S WCI   6
MENOMINEE      LGT SNOW  18  15  88 NE10      30.35S FOG     WCI   6
SAWYER-GWINN   CLOUDY    14  10  85 NE8       30.37R WCI   3
$$
MIZ001>003-009>011-084-160400-
WESTERN UPPER MICHIGAN

CITY           SKY/WX    TMP DP  RH WIND       PRES   REMARKS
IRON MOUNTAIN  FAIR       6   2  83 CALM      30.34R
HOUGHTON       LGT SNOW  21  16  81 NE10      30.41R VSB 1   WCI  10
COPPER HARBOR    N/A     24  16  71 E13G21    30.45R WCI  12
IRONWOOD       CLOUDY     5   1  83 N3        30.42R
$$

ABBREVIATIONS USED IN REMARKS
   TC - TEMPERATURE IN CELSIUS
  WCI - WIND CHILL INDEX
   HX - HEAT INDEX
  VSB - VISIBILITY





USA.gov is the U.S. government's official web portal to all federal, state and local government web resources and services.